Temp
63 63 63 63 63 63 63 63 63 63 63 63 63 63 64 64 64 91 103 94 96 75 78 107 106 108 108 106 106 107 87 85 88 88 91 100 95 100 100 95 97 99 98 100 100
63 63 63 63 63 62 62 62 62 63 63 63 63 63 63 63 96 106 80 77 77 77 104 105 105 104 103 102 106 99 89 91 97 97 95 98 97 97 91 94 93 95 99 101 100
62 63 62 62 63 62 62 62 62 62 63 63 63 63 63 70 99 104 77 77 78 84 109 110 109 105 101 104 102 100 92 98 98 97 99 98 96 99 93 83 93 90 95 98 98
62 62 62 62 62 62 62 62 62 62 62 62 62 63 63 96 88 105 79 77 78 102 109 109 106 102 100 97 102 93 100 99 99 99 98 96 98 95 95 94 99 100 99 98 96
61 61 62 61 61 61 61 61 61 61 61 61 62 63 84 98 102 98 78 81 99 105 107 106 103 103 97 100 100 97 98 99 99 98 98 97 94 93 92 96 99 100 99 98 98
60 61 61 61 61 61 61 60 60 60 61 62 63 62 95 94 113 109 110 104 109 108 109 109 105 106 101 99 98 100 99 98 99 97 97 93 94 93 92 96 96 97 97 98 97
60 60 60 60 60 60 60 59 59 60 62 64 64 87 99 101 114 115 112 111 113 111 107 111 110 105 104 98 103 100 94 98 98 97 95 96 88 88 92 95 94 95 96 97 98
60 59 60 60 60 60 60 59 59 62 67 66 66 96 97 114 117 112 114 112 114 114 111 113 113 107 103 105 100 94 93 81 96 96 94 93 76 88 93 94 91 93 95 95 97
59 59 59 59 60 60 60 59 61 67 69 68 89 98 97 94 106 114 115 109 112 113 113 111 109 104 104 96 81 75 80 87 87 98 94 92 85 90 94 93 91 93 93 96 97
59 59 59 59 59 59 59 59 65 69 78 97 102 95 103 101 109 111 115 111 107 108 105 104 104 98 97 94 72 75 86 88 86 94 95 90 89 90 91 91 91 92 93 95 96
59 58 58 58 59 59 70 96 93 91 98 96 98 98 101 107 109 107 112 108 107 103 94 102 93 86 92 94 94 92 90 86 81 95 91 88 89 91 92 92 90 91 93 94 95
59 58 58 58 58 58 73 95 89 92 84 99 100 100 102 105 99 105 112 100 99 92 99 95 89 96 96 96 93 92 88 86 90 93 90 89 84 89 92 91 93 93 93 95 96
57 57 57 57 57 75 96 92 100 98 86 94 100 99 101 104 99 101 106 103 97 93 94 90 91 97 94 93 90 91 85 87 86 92 86 77 71 71 90 91 93 95 95 95 96
57 57 57 54 72 96 96 97 102 97 81 87 91 97 101 103 96 108 110 103 97 92 95 93 99 93 92 90 93 84 93 91 89 86 76 85 66 73 72 86 90 95 96 97 96
56 57 56 54 78 92 95 101 101 93 68 90 95 107 104 97 100 100 109 102 92 94 93 89 93 91 89 91 94 87 94 90 89 86 84 62 67 70 61 82 87 92 94 95 97
56 56 55 77 84 95 101 100 94 76 68 85 95 92 93 97 98 100 100 104 102 94 96 93 101 95 94 94 94 95 91 84 77 72 69 74 75 65 60 82 88 92 94 95 99
55 56 57 79 91 100 99 93 77 72 89 83 87 93 92 90 93 94 92 90 87 80 82 91 92 98 95 91 94 91 85 65 57 59 57 77 76 64 72 90 92 91 95 97 99
54 53 68 85 97 97 93 84 68 84 84 91 91 91 87 92 91 91 89 87 93 91 86 82 79 91 95 91 87 88 85 75 63 67 72 76 54 75 90 93 93 96 96 97 98
52 90 92 97 96 94 86 75 80 84 88 87 90 86 86 91 90 90 88 88 92 93 81 82 82 94 93 95 92 86 81 90 77 79 75 67 70 86 89 91 92 93 94 94 95
72 84 92 98 95 90 82 70 84 89 89 89 83 88 82 86 85 87 87 92 90 95 96 87 77 91 92 95 95 89 93 78 75 55 62 73 59 53 61 86 90 91 91 92 94
73 84 92 99 93 86 78 83 86 91 90 86 86 86 87 86 88 87 86 92 93 94 96 91 83 84 90 87 85 87 81 79 82 78 60 57 68 64 68 88 89 91 92 93 95
79 78 95 96 80 86 84 86 68 88 91 89 89 90 87 87 85 86 85 89 94 94 86 92 84 78 83 92 94 91 85 84 75 67 58 52 69 86 87 90 91 91 93 94 96
77 84 97 93 77 83 87 85 86 86 88 88 87 90 91 86 81 86 87 93 91 91 87 89 81 74 78 86 87 84 88 86 83 80 73 72 73 90 91 90 92 91 93 94 93
76 77 86 87 88 80 82 83 83 90 86 88 89 90 88 86 89 84 87 89 92 91 72 81 83 78 74 78 84 80 85 87 82 74 76 78 80 79 86 87 89 90 93 94 94
78 78 77 78 82 82 82 83 82 82 89 90 87 89 88 82 86 85 89 88 89 73 86 86 77 83 86 88 87 86 85 86 82 82 75 79 80 86 87 88 90 91 92 90 92
74 75 82 80 78 79 69 79 81 85 84 85 83 88 89 83 86 82 87 88 86 88 87 86 78 83 80 87 86 82 85 86 85 85 82 83 81 88 94 94 90 90 88 90 90
82 80 74 71 78 78 80 81 82 83 86 87 84 85 86 86 87 90 90 88 87 86 84 83 81 78 73 83 82 75 82 84 85 87 85 78 83 79 80 89 90 90 91 90 89
MSLP
1019.55 1018.97 1018.55 1017.97 1017.39 1016.89 1016.29 1015.72 1015.16 1014.87 1014.39 1013.89 1013.54 1013.15 1012.79 1012.37 1011.74 1011.18 1008.89 1008.93 1008.33 1008.51 1008.73 1007.27 1006.73 1005.78 1005.29 1003.69 1003.41 1002.36 1001.99 1000.05 1000.87 1001.52 1001.62 1002.35 1002.81 1003.81 1004.72 1004.83 1005.39 1005.82 1006.21 1007.18 1008.61
1019.55 1019.19 1018.57 1017.90 1017.36 1016.71 1016.26 1015.64 1015.03 1014.51 1014.21 1013.71 1013.37 1012.99 1012.62 1012.44 1010.65 1008.54 1008.91 1008.34 1008.30 1008.47 1007.79 1006.30 1004.92 1005.02 1003.72 1003.01 1002.54 1001.63 1000.54 1000.97 1001.89 1002.30 1002.16 1002.12 1002.75 1003.71 1004.72 1004.54 1005.42 1006.48 1007.22 1007.87 1008.60
1019.63 1018.95 1018.57 1017.79 1017.32 1016.63 1016.02 1015.47 1014.86 1014.25 1013.85 1013.52 1013.13 1012.85 1012.53 1012.28 1009.54 1007.50 1008.54 1008.28 1008.28 1008.39 1007.17 1005.99 1005.15 1004.36 1002.81 1002.31 1002.17 1001.51 1001.35 1001.85 1002.27 1003.30 1002.90 1002.51 1002.94 1003.81 1004.19 1005.90 1005.20 1006.19 1007.23 1007.89 1008.42
1019.88 1019.18 1018.52 1017.99 1017.19 1016.61 1015.81 1015.24 1014.53 1013.98 1013.52 1013.19 1012.85 1012.67 1012.46 1011.13 1007.84 1007.52 1008.31 1008.42 1008.50 1007.92 1006.74 1005.29 1004.39 1002.94 1002.07 1001.62 1002.07 1001.89 1001.89 1002.49 1002.87 1003.22 1002.99 1003.01 1003.57 1004.00 1004.80 1005.40 1005.80 1005.99 1007.14 1007.81 1008.36
1019.93 1019.23 1018.53 1018.04 1017.14 1016.41 1015.59 1014.93 1014.11 1013.64 1013.23 1012.82 1012.57 1012.54 1012.07 1009.24 1006.58 1007.72 1008.30 1008.55 1008.38 1007.62 1006.07 1004.69 1003.72 1002.77 1002.12 1001.86 1001.95 1001.46 1001.87 1002.45 1002.98 1003.32 1003.59 1004.05 1004.01 1004.49 1005.57 1006.16 1006.49 1006.38 1007.15 1007.48 1007.56
1019.99 1019.18 1018.40 1017.65 1016.91 1016.14 1015.23 1014.51 1013.74 1013.15 1012.76 1012.47 1012.37 1012.50 1010.96 1007.36 1006.19 1006.85 1006.92 1007.71 1006.87 1006.52 1005.24 1004.48 1003.70 1003.49 1002.68 1002.06 1001.83 1002.03 1002.07 1002.15 1002.54 1003.05 1003.51 1003.86 1004.10 1004.99 1006.10 1006.45 1006.66 1006.89 1006.94 1007.16 1007.47
1019.85 1019.13 1018.33 1017.46 1016.61 1015.87 1014.89 1014.13 1013.38 1012.67 1012.29 1012.14 1012.18 1011.60 1008.81 1006.03 1005.71 1006.07 1006.49 1006.26 1005.96 1005.67 1004.86 1004.16 1004.03 1003.54 1002.73 1002.07 1002.33 1002.13 1001.68 1001.47 1001.79 1002.69 1002.90 1003.78 1003.62 1004.75 1006.21 1006.39 1006.43 1006.68 1007.05 1007.19 1007.31
1019.94 1019.09 1018.25 1017.32 1016.31 1015.41 1014.62 1013.85 1013.11 1012.46 1012.06 1012.03 1012.11 1010.66 1007.33 1005.72 1005.69 1005.85 1005.83 1005.59 1005.57 1005.39 1005.07 1004.55 1004.04 1003.43 1002.72 1002.58 1002.43 1002.42 1002.21 1001.41 1001.61 1002.11 1003.46 1003.63 1003.09 1005.18 1006.11 1006.01 1006.35 1006.64 1006.73 1007.05 1007.07
1020.06 1019.16 1018.18 1017.15 1016.10 1015.07 1014.27 1013.56 1012.76 1012.31 1012.06 1011.95 1011.42 1009.29 1006.09 1006.69 1005.97 1005.33 1005.26 1004.86 1004.67 1004.75 1004.59 1004.64 1004.05 1002.67 1001.99 1001.64 1003.59 1003.37 1002.13 1001.03 1001.38 1002.22 1002.54 1002.84 1003.12 1005.10 1005.72 1005.78 1005.95 1006.25 1006.61 1006.59 1006.91
1020.07 1019.13 1018.19 1017.15 1016.05 1014.83 1013.81 1013.10 1012.33 1012.14 1011.67 1010.56 1009.25 1008.07 1005.79 1005.01 1004.87 1005.02 1005.05 1005.22 1004.64 1004.14 1003.97 1003.80 1002.83 1001.88 1001.63 1001.00 1002.44 1003.19 1001.13 1000.97 1001.03 1001.59 1002.10 1002.24 1003.13 1004.70 1005.93 1005.91 1005.76 1005.93 1006.37 1006.29 1006.47
1020.08 1019.17 1018.17 1017.11 1015.95 1014.74 1013.44 1011.65 1011.80 1010.89 1009.43 1007.15 1006.41 1005.42 1004.71 1005.06 1005.50 1005.02 1004.72 1004.78 1004.58 1004.14 1003.23 1002.51 1002.33 1001.73 1001.71 1001.99 1002.03 1001.79 1001.38 1001.22 1003.66 1001.67 1002.43 1002.65 1003.04 1003.96 1005.19 1005.60 1005.69 1005.81 1005.85 1005.95 1006.07
1020.02 1019.08 1018.15 1017.00 1015.74 1014.38 1013.95 1011.11 1011.60 1011.29 1009.24 1007.11 1006.54 1005.89 1005.96 1005.59 1004.64 1004.23 1004.46 1004.49 1003.99 1003.49 1002.80 1002.68 1001.99 1001.59 1002.35 1002.25 1002.21 1001.60 1001.27 1000.98 1001.19 1002.20 1002.94 1003.03 1004.26 1004.76 1004.84 1005.15 1005.10 1005.16 1005.53 1005.42 1005.61
1019.87 1019.16 1018.23 1016.65 1015.35 1013.87 1012.07 1011.76 1011.27 1010.88 1009.07 1006.19 1005.90 1005.30 1005.01 1005.22 1004.12 1003.75 1004.26 1003.80 1003.39 1003.19 1002.47 1002.23 1002.50 1002.44 1002.60 1002.14 1001.61 1001.18 1001.74 1001.43 1001.71 1001.74 1003.45 1004.75 1006.28 1006.57 1005.14 1005.62 1005.35 1005.13 1005.35 1005.38 1005.58
1019.81 1019.26 1018.51 1016.76 1015.11 1012.85 1011.27 1011.50 1011.02 1010.89 1008.05 1005.43 1005.27 1004.70 1004.58 1004.41 1003.77 1003.30 1003.62 1003.57 1003.27 1002.86 1002.58 1002.08 1001.91 1002.28 1002.47 1002.08 1001.68 1001.54 1001.76 1002.06 1001.99 1002.21 1002.62 1004.69 1006.21 1007.01 1007.08 1005.42 1005.17 1004.20 1004.35 1004.78 1005.35
1019.68 1019.17 1018.63 1018.60 1016.27 1012.57 1011.80 1011.28 1011.10 1010.76 1006.17 1004.38 1003.67 1003.97 1003.85 1003.78 1003.24 1003.60 1003.85 1003.76 1003.37 1002.73 1003.18 1002.38 1001.68 1002.08 1002.01 1001.79 1002.22 1002.28 1002.37 1002.70 1002.63 1002.85 1003.35 1006.66 1008.24 1008.91 1007.49 1004.93 1004.77 1004.28 1004.55 1004.78 1005.14
1019.52 1018.98 1018.55 1015.99 1015.03 1012.63 1011.85 1011.32 1011.00 1008.90 1004.47 1003.71 1003.45 1003.68 1003.33 1003.51 1003.14 1003.20 1003.65 1004.13 1003.69 1003.41 1002.89 1002.76 1002.25 1002.73 1002.52 1002.39 1002.72 1002.84 1002.68 1003.73 1004.69 1005.57 1004.05 1005.65 1006.43 1007.97 1006.82 1004.47 1004.49 1004.44 1004.51 1004.68 1004.57
1019.14 1018.19 1018.44 1016.33 1012.66 1012.07 1011.81 1010.54 1008.69 1005.41 1003.75 1003.07 1002.85 1002.88 1002.90 1002.84 1002.94 1003.32 1003.43 1003.55 1003.66 1003.47 1002.86 1002.25 1001.98 1001.84 1002.84 1002.21 1002.29 1002.51 1002.39 1003.76 1005.97 1006.08 1006.09 1005.88 1005.97 1007.51 1005.77 1004.20 1004.05 1004.10 1004.14 1004.33 1004.32
1018.56 1017.16 1015.25 1014.33 1012.85 1012.35 1011.52 1009.51 1006.68 1003.51 1002.85 1002.83 1002.37 1002.58 1002.30 1002.32 1002.78 1003.11 1002.95 1002.88 1003.15 1002.95 1002.15 1001.11 1000.76 1001.63 1002.43 1002.35 1002.15 1002.25 1002.59 1002.83 1002.98 1003.44 1004.05 1005.77 1006.62 1004.62 1003.90 1004.49 1004.57 1004.07 1004.04 1004.47 1004.60
1017.97 1014.48 1013.02 1012.16 1012.44 1012.35 1010.84 1007.75 1004.37 1003.30 1003.31 1002.73 1002.49 1002.04 1001.94 1002.10 1002.33 1002.72 1002.95 1002.53 1002.31 1002.90 1002.84 1001.65 1001.54 1002.14 1002.67 1002.65 1002.89 1002.15 1002.52 1002.60 1003.64 1004.14 1004.25 1006.35 1006.13 1003.45 1003.70 1004.02 1004.33 1004.07 1004.30 1004.77 1005.19
1017.97 1014.55 1011.65 1011.41 1012.07 1011.67 1009.63 1006.86 1005.02 1004.58 1004.30 1003.32 1002.02 1001.73 1001.42 1001.90 1002.45 1002.22 1002.32 1002.60 1002.61 1002.64 1003.03 1002.70 1002.48 1002.11 1002.77 1003.03 1002.63 1002.75 1002.65 1002.80 1004.06 1005.23 1004.52 1004.41 1006.93 1008.88 1006.91 1003.41 1003.83 1004.16 1004.54 1004.98 1005.34
1017.70 1013.34 1011.29 1011.19 1011.88 1010.27 1007.79 1005.84 1005.30 1004.83 1004.63 1003.55 1002.03 1001.78 1001.20 1001.41 1002.03 1001.84 1002.10 1002.13 1002.88 1002.76 1003.21 1003.53 1003.68 1002.93 1002.74 1002.25 1001.78 1002.05 1002.41 1004.29 1003.36 1004.61 1006.87 1007.03 1006.67 1006.87 1005.30 1003.59 1003.71 1004.01 1004.53 1004.89 1005.09
1016.40 1012.31 1010.78 1011.06 1010.39 1008.23 1006.50 1005.76 1007.09 1005.14 1004.50 1003.81 1003.33 1001.95 1001.79 1001.96 1001.98 1001.87 1002.17 1002.50 1003.30 1003.42 1003.46 1003.69 1004.09 1003.33 1002.29 1002.19 1002.52 1002.58 1002.76 1003.07 1003.54 1004.69 1007.33 1006.77 1005.45 1005.23 1003.53 1004.37 1004.07 1004.00 1004.50 1005.21 1005.48
1015.33 1011.70 1010.37 1010.52 1008.38 1006.78 1006.27 1006.30 1006.17 1005.29 1004.40 1003.83 1003.23 1002.87 1002.76 1002.36 1002.48 1002.43 1002.68 1003.51 1004.17 1004.07 1004.04 1004.31 1004.23 1003.57 1002.60 1002.15 1003.40 1002.99 1002.43 1003.16 1003.86 1004.50 1004.23 1003.95 1003.77 1004.06 1003.80 1003.93 1004.02 1003.99 1004.51 1004.95 1005.71
1015.87 1011.51 1009.93 1009.62 1008.27 1007.59 1005.94 1005.79 1005.33 1005.36 1005.13 1004.75 1003.73 1003.58 1003.16 1002.80 1002.95 1002.69 1002.89 1003.87 1004.42 1004.74 1005.25 1005.41 1004.47 1003.83 1002.70 1002.24 1002.58 1002.63 1002.21 1002.63 1003.27 1003.90 1003.29 1002.74 1002.51 1003.21 1003.38 1003.49 1003.85 1004.32 1004.78 1005.13 1005.71
1015.42 1011.62 1010.69 1008.53 1007.87 1007.54 1007.08 1006.01 1005.32 1004.87 1005.05 1004.62 1003.95 1003.48 1003.16 1002.97 1002.76 1002.79 1002.82 1003.79 1004.64 1005.28 1005.47 1005.51 1004.79 1003.76 1003.00 1002.51 1002.55 1002.46 1002.19 1002.17 1002.45 1002.94 1003.06 1002.65 1002.31 1002.56 1002.73 1003.36 1003.73 1004.12 1004.96 1005.64 1005.80
1014.75 1012.75 1011.18 1009.64 1009.04 1008.14 1007.91 1006.51 1005.70 1004.87 1005.31 1004.41 1004.41 1003.77 1003.98 1003.87 1003.39 1003.17 1003.25 1003.30 1003.66 1005.02 1004.94 1005.41 1004.82 1004.07 1003.42 1002.86 1002.44 1002.54 1002.26 1002.23 1002.24 1002.29 1002.43 1002.24 1002.56 1003.26 1002.32 1003.25 1004.01 1004.27 1005.20 1005.36 1005.95
1014.88 1014.33 1013.39 1009.81 1009.01 1008.17 1006.99 1006.56 1006.23 1006.29 1005.99 1005.47 1005.51 1005.08 1004.62 1004.85 1005.17 1005.03 1004.95 1004.90 1004.87 1004.61 1004.74 1004.95 1004.55 1004.03 1003.39 1002.86 1002.71 1002.35 1002.10 1002.02 1001.86 1002.19 1002.15 1001.87 1002.30 1002.60 1004.05 1003.71 1003.85 1003.91 1004.78 1005.59 1006.35
Wind_Speed
19 20 18 19 19 18 18 18 17 14 13 14 13 12 12 13 13 8 9 6 3 14 4 7 10 10 9 11 7 11 8 1 10 3 3 12 3 6 3 7 9 9 10 16 15
20 18 20 20 20 20 18 18 17 16 14 14 12 12 12 11 13 18 2 8 13 12 11 9 8 2 13 1 2 11 6 17 11 10 12 5 5 9 2 8 11 13 12 16 15
22 22 20 22 21 21 20 18 17 17 15 13 13 12 12 12 13 9 8 10 12 11 14 9 10 9 14 4 5 6 13 12 13 10 9 11 2 5 8 9 7 14 13 14 13
21 21 22 21 23 21 21 19 18 18 16 13 12 11 10 10 6 9 7 8 8 10 13 10 8 13 10 3 4 10 10 9 11 6 4 10 6 11 9 8 6 13 13 12 10
21 21 22 21 22 22 21 19 19 17 14 13 12 9 8 12 4 9 10 8 11 11 11 11 11 11 15 9 4 5 8 4 5 3 9 3 8 6 9 4 4 6 10 11 9
20 22 23 23 22 22 22 20 19 17 13 10 9 5 10 17 11 14 9 12 11 11 11 9 11 11 11 6 8 4 4 4 1 5 6 7 9 3 8 3 7 8 8 6 2
22 22 23 24 24 23 23 21 19 15 11 7 7 7 12 6 4 9 10 10 8 8 11 6 10 14 10 6 2 2 15 12 9 9 3 6 9 12 6 6 6 7 6 3 5
22 23 24 25 26 25 24 21 20 14 6 3 4 11 13 6 4 7 11 10 9 9 10 11 12 14 9 5 9 13 21 10 14 3 8 9 10 9 7 9 7 5 5 6 4
22 23 25 26 27 27 24 22 16 10 5 4 8 11 14 5 10 12 11 12 10 9 8 8 15 16 10 15 24 34 13 9 12 12 3 2 13 9 5 5 4 8 6 5 8
23 23 25 26 27 28 27 13 3 9 7 9 10 8 9 14 14 7 7 6 9 11 11 13 18 15 16 9 5 14 10 5 2 10 8 4 7 13 7 6 7 5 8 6 6
23 23 25 26 28 27 18 6 8 8 15 9 6 13 3 4 3 12 10 9 12 13 16 17 11 7 11 9 11 11 12 12 15 9 9 8 7 8 13 9 7 8 8 8 4
22 24 25 27 27 28 10 6 7 8 10 10 12 9 4 5 12 14 10 11 13 16 19 9 13 3 5 8 10 15 17 9 3 5 7 14 15 12 7 5 7 5 8 8 7
22 23 25 30 28 14 7 6 7 7 8 12 13 13 11 12 15 18 14 14 14 15 16 15 7 5 8 13 16 14 8 14 16 10 18 7 3 4 11 6 6 6 4 4 1
22 21 22 32 4 13 2 4 9 4 8 14 12 9 9 12 12 9 12 16 12 14 13 14 12 4 11 16 15 13 10 16 20 13 9 13 7 4 9 6 7 10 10 6 4
21 21 20 9 12 8 8 8 9 5 7 9 15 6 14 16 14 14 9 11 15 13 8 15 11 6 12 10 12 16 15 18 18 16 16 11 11 13 30 7 7 5 7 5 3
22 20 20 3 8 11 10 8 5 9 3 9 10 13 16 19 18 5 11 13 11 14 12 13 15 4 15 6 9 10 13 18 17 16 6 12 14 10 6 9 9 8 9 4 2
24 24 12 8 7 9 9 8 9 10 5 7 11 18 19 18 17 12 13 16 14 13 16 18 18 10 3 14 9 8 15 4 5 9 5 18 12 9 22 8 8 6 9 6 6
27 26 5 8 9 9 9 9 10 6 1 4 8 14 17 15 17 14 9 13 18 18 14 7 11 9 7 9 11 14 10 10 18 10 7 11 6 12 12 10 6 6 6 6 9
30 7 8 8 8 5 9 10 6 3 5 5 9 15 12 12 9 16 15 13 8 12 14 4 8 8 2 5 4 7 9 11 12 17 13 3 4 6 12 11 7 7 8 6 7
9 9 10 7 5 7 8 14 7 3 6 9 13 13 13 13 13 13 14 12 14 7 9 4 9 2 8 6 12 10 11 11 5 6 14 8 14 4 26 13 8 8 7 5 3
7 6 8 5 6 8 10 5 2 3 3 6 5 8 3 9 11 13 9 10 6 12 14 11 7 13 4 14 7 6 4 12 6 9 14 14 3 15 28 8 7 6 5 4 4
5 8 7 6 9 9 11 3 2 7 4 5 7 7 3 2 6 6 7 1 3 5 9 12 6 12 16 7 6 8 11 12 10 3 9 11 5 9 6 4 7 6 5 7 7
5 8 6 7 9 10 9 8 5 5 3 4 7 5 2 3 3 2 2 10 2 7 3 7 7 10 15 11 16 15 9 3 6 10 14 14 4 11 8 7 6 5 7 5 4
5 6 7 8 11 10 5 11 9 7 7 5 6 5 7 6 5 2 7 4 5 7 5 4 8 9 14 6 9 12 8 10 5 8 14 15 6 9 11 9 6 2 2 7 6
6 5 6 6 11 11 6 5 12 8 8 6 8 11 10 7 7 9 6 10 6 6 5 5 10 14 13 13 10 12 15 11 9 11 14 16 19 16 8 8 7 5 2 1 1
6 4 3 8 4 7 7 11 11 7 6 10 9 5 7 9 7 11 4 2 6 8 7 6 8 9 13 16 11 14 14 13 14 14 15 13 17 14 4 4 6 6 3 3 6
2 4 5 5 9 10 13 13 10 1 6 5 3 7 12 7 6 8 6 5 5 5 7 6 9 7 13 11 12 10 11 15 10 13 16 13 14 13 22 7 8 4 2 1 3
Wind_Direction
352 347 346 341 338 335 332 332 326 325 318 312 314 311 309 309 295 225 256 99 138 171 247 235 237 247 240 247 268 260 359 12 59 51 81 103 221 69 47 121 71 55 70 108 137
347 349 344 340 337 332 330 327 323 319 314 309 309 306 306 318 277 258 145 147 154 176 223 246 302 265 246 203 252 280 339 36 26 8 355 81 300 105 151 134 130 102 100 123 150
343 344 346 338 337 329 328 325 320 315 312 307 303 302 304 301 270 94 180 158 178 194 263 298 277 257 276 242 49 311 26 9 58 34 338 26 45 47 52 351 139 127 134 145 155
340 342 340 338 330 328 324 323 318 313 309 303 298 300 310 256 269 81 166 173 191 238 273 275 264 273 281 349 61 283 70 19 25 40 2 37 22 89 32 68 54 114 140 153 171
338 340 337 335 327 327 323 322 316 311 303 297 292 300 275 227 225 126 149 153 196 236 264 301 276 335 347 347 305 280 56 48 63 78 20 9 51 56 86 80 129 138 149 168 190
339 337 336 333 330 326 325 325 315 309 299 287 277 286 243 252 100 137 153 167 229 229 283 288 334 345 288 333 311 25 360 62 26 74 110 257 111 213 103 142 154 162 174 170 137
337 336 335 333 329 327 327 324 315 310 298 274 243 249 259 262 136 151 174 202 223 254 289 337 310 300 344 261 14 246 240 192 111 63 85 290 185 91 104 179 149 183 181 205 197
335 334 334 331 329 329 327 320 313 308 316 240 220 245 258 128 210 198 198 235 222 245 266 284 292 283 267 341 246 259 325 127 96 29 99 270 94 111 153 182 150 178 169 201 144
333 332 333 332 329 325 323 315 293 289 294 202 224 235 223 131 211 214 214 243 186 226 241 281 261 269 251 229 33 324 261 41 104 74 312 247 109 129 145 123 146 181 172 168 173
332 333 332 331 327 324 322 287 312 286 224 226 270 225 232 203 181 204 202 257 251 234 235 231 239 250 260 344 176 241 351 350 20 58 322 12 28 124 169 194 156 164 178 188 209
332 333 333 329 325 321 328 231 210 194 217 258 197 225 117 96 181 210 189 221 238 247 257 227 284 254 19 335 328 306 305 21 329 96 296 63 310 100 167 173 178 182 171 202 220
332 334 333 327 322 316 285 18 41 343 294 236 254 268 257 261 200 218 180 226 212 246 230 251 250 62 329 299 289 287 302 333 235 353 292 355 43 13 159 153 169 187 177 194 191
333 334 332 324 318 295 338 39 333 314 256 206 218 229 200 208 218 195 196 224 248 237 262 266 244 82 278 288 284 297 348 317 318 312 72 259 208 271 119 182 110 125 196 159 238
331 331 335 326 293 339 279 330 324 326 262 161 199 217 189 217 219 237 187 244 237 256 251 259 275 356 284 281 295 294 349 313 300 289 301 229 121 177 271 144 231 175 162 133 122
328 326 330 319 317 303 357 321 330 238 239 144 154 93 194 209 202 195 229 243 264 243 227 263 253 266 267 300 337 303 323 301 309 291 284 23 298 59 323 142 132 114 118 121 169
322 320 333 166 224 270 306 308 250 230 214 152 166 196 201 205 231 123 200 231 271 279 274 265 286 252 282 337 306 307 278 42 353 351 305 206 250 137 173 134 117 109 92 117 81
318 309 305 302 293 340 307 254 234 257 113 149 185 184 196 194 211 205 204 200 227 221 241 238 238 224 256 258 200 254 271 123 258 255 166 281 338 158 222 105 102 119 112 93 8
316 308 218 251 302 298 274 249 264 41 138 85 177 188 198 190 208 195 227 226 207 253 283 255 235 174 185 274 336 306 339 305 311 332 349 159 206 231 129 104 141 146 108 53 29
309 286 253 243 215 262 265 245 316 66 38 200 193 189 195 184 228 210 214 245 220 207 252 259 215 131 253 277 283 339 281 339 310 316 281 99 185 60 130 120 173 111 83 64 59
312 291 255 126 198 236 252 260 300 20 286 259 192 208 185 195 198 210 209 217 247 228 233 292 294 254 117 262 231 261 310 284 93 227 271 177 96 163 302 152 133 129 110 87 34
263 258 109 173 204 233 244 245 265 84 285 256 269 203 218 159 200 208 236 198 244 237 216 240 253 284 173 226 286 247 245 262 292 320 12 348 334 195 211 184 124 116 98 95 21
283 242 125 181 232 230 244 231 38 267 207 251 296 326 200 157 215 228 222 225 132 260 239 225 242 258 262 77 279 281 299 328 306 30 167 192 259 125 343 159 149 123 124 51 5
259 281 150 223 240 223 210 251 240 248 230 223 218 288 246 196 192 231 39 73 160 222 19 140 219 249 241 222 1 287 273 271 296 290 278 294 42 194 162 154 168 137 108 170 5
268 241 197 211 267 289 200 234 214 194 250 250 288 240 209 219 205 202 201 126 191 237 37 332 274 262 295 341 218 229 251 241 281 289 310 312 322 126 197 170 150 174 121 45 0
230 253 3 192 215 229 270 299 223 195 229 221 213 242 217 227 224 206 236 131 174 139 204 230 253 257 252 282 310 289 293 298 243 259 287 310 306 311 161 172 180 141 111 34 12
293 282 261 287 278 230 190 233 242 192 248 197 251 165 250 237 332 356 16 349 166 165 189 199 266 278 291 288 241 271 285 285 276 276 275 298 288 2 147 196 147 190 126 276 39
95 265 277 229 208 234 224 232 225 43 218 298 309 277 229 55 5 343 320 298 298 291 207 219 273 257 270 299 324 272 280 284 310 313 317 290 289 154 186 235 181 188 177 18 12